Burns, OR

3:49 PM PST on February 08, 2016 (GMT -0800)
Burns Municipal

Weather History for KBNO - April, 2014

Change the Weather History Date:

Tuesday, April 22, 2014

  Actual Average Record
Temperature  
Mean Temperature 36 °F 44 °F  
Max Temperature 50 °F 59 °F 83 °F (2012)
Min Temperature 22 °F 30 °F 17 °F (1972)
Degree Days  
Heating Degree Days 29 21  
Month to date heating degree days 460 500  
Since 1 July heating degree days 6527 6885  
Cooling Degree Days 0 0  
Month to date cooling degree days 0 0  
Year to date cooling degree days 0 0  
Moisture  
Dew Point 27 °F    
Average Humidity 52    
Maximum Humidity 79    
Minimum Humidity 25    
Precipitation  
Precipitation T in 0.03 in 0.33 in (1979)
Month to date precipitation 0.48 0.68  
Year to date precipitation 3.92 3.98  
Sea Level Pressure  
Sea Level Pressure 29.81 in    
Wind  
Wind Speed 13 mph (WSW)    
Max Wind Speed 29 mph    
Max Gust Speed 36 mph    
Visibility 10 miles    
Events Rain    
T = Trace of Precipitation, MM = Missing Value Source: NWS Daily Summary

Daily Weather History Graph

Daily Weather History Graph

Search for Another Location

Airport or City:

Trip Planner

Search our weather history database for the weather conditions in past years. The results will help you decide how hot, cold, wet, or windy it might be!

Date:

Astronomy

Apr. 22, 2014 Rise Set
Actual Time 6:01 AM PDT 7:47 PM PDT
Civil Twilight 5:31 AM PDT 8:18 PM PDT
Nautical Twilight 4:54 AM PDT 8:55 PM PDT
Astronomical Twilight 4:14 AM PDT 9:35 PM PDT
Moon 2:07 AM PDT (4/22) 12:42 PM PDT (4/22)
Length of Visible Light 14h 47m
Length of Day
13h 46m
Last Quarter, 45% of the Moon is Illuminated
Apr 22
Last Quarter
Apr 28
New
May 6
First Quarter
May 14
Full
May 21
Last Quarter

Hourly Weather History & Observations

Time (PDT) Temp. Windchill Dew Point Humidity Pressure Visibility Wind Dir Wind Speed Gust Speed Precip Events Conditions
12:53 AM 50.0 °F - 35.1 °F 57% 29.78 in 10.0 mi SSW 26.5 mph 36.8 mph N/A   Overcast
1:53 AM 46.9 °F - 37.0 °F 68% 29.75 in 10.0 mi SSW 4.6 mph - 0.00 in   Overcast
2:53 AM 46.9 °F - 35.1 °F 63% 29.74 in 10.0 mi Calm Calm - N/A   Overcast
3:53 AM 45.0 °F 43.5 °F 36.0 °F 71% 29.72 in 10.0 mi West 3.5 mph - N/A   Overcast
4:53 AM 46.0 °F 40.6 °F 33.1 °F 61% 29.70 in 10.0 mi SW 11.5 mph - N/A   Mostly Cloudy
5:53 AM 43.0 °F 37.2 °F 34.0 °F 71% 29.70 in 10.0 mi West 10.4 mph - N/A   Clear
6:53 AM 39.9 °F 32.9 °F 33.1 °F 77% 29.72 in 10.0 mi SW 11.5 mph - N/A   Overcast
7:53 AM 41.0 °F 34.3 °F 32.0 °F 70% 29.73 in 10.0 mi West 11.5 mph - N/A   Overcast
8:53 AM 41.0 °F 32.5 °F 32.0 °F 70% 29.75 in 10.0 mi West 17.3 mph - N/A   Overcast
9:29 AM 43.0 °F 32.7 °F 30.9 °F 62% 29.77 in 10.0 mi West 28.8 mph 34.5 mph N/A   Overcast
9:46 AM 43.0 °F 33.8 °F 30.9 °F 62% 29.78 in 10.0 mi West 23.0 mph 33.4 mph N/A   Mostly Cloudy
9:53 AM 42.1 °F 32.6 °F 30.9 °F 65% 29.75 in 10.0 mi West 23.0 mph 32.2 mph N/A   Mostly Cloudy
10:53 AM 46.9 °F - 28.9 °F 50% 29.75 in 10.0 mi West 19.6 mph 26.5 mph N/A   Mostly Cloudy
11:53 AM 45.0 °F 36.2 °F 28.9 °F 53% 29.78 in 10.0 mi West 24.2 mph 28.8 mph N/A   Overcast
12:53 PM 46.0 °F 38.5 °F 27.0 °F 47% 29.79 in 10.0 mi West 19.6 mph 27.6 mph N/A   Overcast
1:53 PM 44.1 °F 36.8 °F 26.1 °F 49% 29.81 in 8.0 mi West 16.1 mph 26.5 mph 0.00 in Rain Light Rain
2:53 PM 50.0 °F - 21.9 °F 33% 29.80 in 10.0 mi WSW 27.6 mph 32.2 mph 0.00 in   Mostly Cloudy
3:53 PM 48.0 °F - 19.9 °F 33% 29.81 in 10.0 mi West 18.4 mph 29.9 mph N/A   Mostly Cloudy
4:53 PM 46.9 °F - 12.0 °F 24% 29.83 in 10.0 mi West 18.4 mph 35.7 mph N/A   Scattered Clouds
5:53 PM 46.0 °F 38.5 °F 17.1 °F 31% 29.84 in 10.0 mi WSW 19.6 mph - N/A   Mostly Cloudy
6:00 PM 45.0 °F 37.4 °F 19.0 °F 36% 29.85 in 10.0 mi WSW 18.4 mph - N/A   Mostly Cloudy
6:53 PM 43.0 °F 35.1 °F 21.0 °F 42% 29.88 in 10.0 mi West 17.3 mph - 0.00 in   Mostly Cloudy
7:53 PM 37.9 °F 32.7 °F 21.0 °F 51% 29.92 in 10.0 mi WSW 6.9 mph - N/A   Mostly Cloudy
8:53 PM 37.0 °F 31.0 °F 21.0 °F 52% 29.96 in 10.0 mi WSW 8.1 mph - N/A   Mostly Cloudy
9:53 PM 32.0 °F 25.6 °F 21.9 °F 66% 29.98 in 10.0 mi WSW 6.9 mph - N/A   Partly Cloudy
10:53 PM 30.0 °F 25.2 °F 21.9 °F 72% 29.98 in 10.0 mi South 4.6 mph - N/A   Clear
11:53 PM 28.0 °F 22.8 °F 21.0 °F 75% 30.00 in 10.0 mi West 4.6 mph - N/A   Clear